Flag for United Kingdom Weather past 2 weeks in Brentwood, England, United Kingdom

Now
66 °F

Mild.


Feels Like: 66 °F
Forecast: 55 / 72 °F
Wind: 7 mph from West

Location: Gravesend-Broadness

Current Time: Jul 5, 2015 at 3:12:06 PM

Latest Report: Jul 5, 2015 at 2:00 PM


Visibility: N/A

Pressure: 30.02 "Hg

Humidity: 75%

Dew point: 58 °F

Location of BrentwoodLocation

Historic Weather in Brentwood — Graph

°F

Brentwood temperature yesterday

Maximum temperature yesterday: 82 °F (at 2:00 PM)
Minimum temperature yesterday: 62 °F (at 5:00 AM)
Average temperature yesterday: 71 °F

Past Weeks' High & Low Weather Summary

 TemperatureHumidityPressure
High94 °F (Jul 1, 6:00 PM)96% (Jul 4, 6:00 AM)30.30 "Hg (Jul 4, 6:00 AM)
Low49 °F (Jun 24, 1:00 AM)29% (Jun 30, 12:00 PM)29.76 "Hg (Jun 22, 3:00 PM)
Average66 °F67%30.06 "Hg
* Reported Jun 20 1:00 PM — Jul 5 1:00 PM, Brentwood, Weather by CustomWeather, © 2015

Note: Actual official high and low records may vary slightly from our data, if they occured in-between our weather recording intervals... More about our weather records

Advertising

Brentwood weather history for previous 24 hours

 ConditionsComfort  
Time TempWeatherWind HumidityBarometerVisibility
1:00 PM
Sun, Jul 5
61 °FCool.5 mph88%30.02 "HgN/A
12:00 PM59 °FCool.2 mph90%30.02 "HgN/A
11:00 AM59 °FCool.5 mph90%30.03 "HgN/A
10:00 AM59 °FCool.6 mph87%30.06 "HgN/A
9:00 AM61 °FCool.7 mph75%30.08 "HgN/A
8:00 AM63 °FMild.3 mph73%30.06 "HgN/A
7:00 AM61 °FCool.7 mph76%30.08 "HgN/A
6:00 AM60 °FCool.6 mph79%30.09 "HgN/A
5:00 AM57 °FCool.1 mph85%30.09 "HgN/A
3:00 AM56 °FCool.5 mph85%30.11 "HgN/A
2:00 AM56 °FCool.5 mph85%30.12 "HgN/A
1:00 AM56 °FCool.6 mph85%30.12 "HgN/A
12:00 AM59 °FCool.3 mph73%30.12 "HgN/A
11:00 PM
Sat, Jul 4
63 °FMild.8 mph70%30.11 "HgN/A
10:00 PM63 °FMild.5 mph64%30.12 "HgN/A
9:00 PM67 °FMild.9 mph53%30.11 "HgN/A
8:00 PM71 °FMild.10 mph57%30.11 "HgN/A
7:00 PM75 °FMild.12 mph51%30.09 "HgN/A
6:00 PM78 °FWarm.14 mph47%30.09 "HgN/A
5:00 PM80 °FWarm.13 mph41%30.09 "HgN/A
4:00 PM81 °FWarm.13 mph45%30.09 "HgN/A
3:00 PM82 °FWarm.12 mph43%30.07 "HgN/A
Weather by CustomWeather, © 2015

See weather overviewHow to use our weather pages